User: anonymous   Login
Location: *
(50.6089°N, 2.2719°E)
Time: 21:56:50
(UTC+00:00)
Language:

STARLINK-53 - Orbit

View from above orbital plane
View from above orbital plane
View from above satellite
View from above satellite

Ground track
Ground track

The orbit data is extracted from the following two-line orbital elements,

1 44294U 19029BM  19345.25001157 -.00024824  00000-0 -14115-2 0  9993
2 44294  52.9995 348.0309 0001256  70.4300 326.8896 15.12140042 31522
Epoch (UTC): 11 December 2019 06:00:01
Eccentricity: 0.0001256
inclination: 52.9995°
perigee height: 529 km
apogee height: 530 km
right ascension of ascending node: 348.0309°
argument of perigee: 70.4300°
revolutions per day: 15.12140042
mean anomaly at epoch: 326.8896°
orbit number at epoch: 3152

The dashed part of the orbit path shows where the satellite is in the earth's shadow,  

DLR